Weather History for KANJ - November, 2012

Change the Weather History Date:

Thursday, November 8, 2012

  Actual Average Record
Temperature  
Mean Temperature 40 °F 37 °F  
Max Temperature 43 °F 43 °F 60 °F (1986)
Min Temperature 36 °F 31 °F 9 °F (1976)
Degree Days  
Heating Degree Days 25 28  
Month to date heating degree days 243 213  
Since 1 July heating degree days 1150 1218  
Moisture  
Dew Point 33 °F    
Average Humidity 78    
Maximum Humidity 92    
Minimum Humidity 64    
Precipitation  
Precipitation 0.02 in 0.11 in 1.20 in (1957)
Month to date precipitation 0.03 0.89  
Year to date precipitation 24.28 27.68  
Snow  
Snow 0.00 in 0.30 in 6.00 in (1973)
Month to date snowfall T 2.3  
Since 1 July snowfall 5.9 3.9  
Snow Depth 0.00 in    
Sea Level Pressure  
Sea Level Pressure 30.09 in    
Wind  
Wind Speed 4 mph (SE)    
Max Wind Speed 10 mph    
Max Gust Speed 14 mph    
Visibility 8 miles    
Events Rain    
T = Trace of Precipitation, MM = Missing Value Source: NWS Daily Summary

Daily Weather History Graph

Daily Weather History Graph

Search for Another Location

Airport or City:

Trip Planner

Search our weather history database for the weather conditions in past years. The results will help you decide how hot, cold, wet, or windy it might be!

Date:

Astronomy

Nov. 08, 2012 Rise Set
Actual Time 7:29 AM EST 5:11 PM EST
Civil Twilight 6:57 AM EST 5:44 PM EST
Nautical Twilight 6:21 AM EST 6:20 PM EST
Astronomical Twilight 5:46 AM EST 6:55 PM EST
Moon 1:03 AM EST (11/8) 2:10 PM EST (11/8)
Length of Visible Light 10h 46m
Length of Day
9h 42m
Waning Crescent, 33% of the Moon is Illuminated
Nov 8
Waning Crescent
Nov 13
New
Nov 20
First Quarter
Nov 28
Full
Dec 6
Last Quarter

Hourly Weather History & Observations

Time (EST) Temp. Windchill Dew Point Humidity Pressure Visibility Wind Dir Wind Speed Gust Speed Precip Events Conditions
12:38 AM 37.9 °F 34.4 °F 28.0 °F 68% 30.15 in 10.0 mi ESE 4.6 mph - N/A   Overcast
12:55 AM 37.9 °F 34.4 °F 27.0 °F 65% 30.16 in 10.0 mi East 4.6 mph - N/A   Overcast
1:55 AM 37.0 °F 34.5 °F 26.1 °F 65% 30.16 in 10.0 mi East 3.5 mph - N/A   Overcast
2:55 AM 37.0 °F 34.5 °F 26.1 °F 65% 30.16 in 10.0 mi East 3.5 mph - N/A   Overcast
3:55 AM 37.0 °F 34.5 °F 27.0 °F 67% 30.16 in 10.0 mi East 3.5 mph - N/A   Overcast
4:55 AM 36.0 °F 32.1 °F 27.0 °F 70% 30.17 in 10.0 mi ENE 4.6 mph - N/A   Overcast
5:55 AM 36.0 °F 31.1 °F 27.0 °F 70% 30.17 in 10.0 mi East 5.8 mph - N/A   Overcast
6:55 AM 36.0 °F 33.3 °F 28.0 °F 73% 30.15 in 10.0 mi East 3.5 mph - N/A   Overcast
7:55 AM 37.0 °F 33.3 °F 28.0 °F 70% 30.16 in 10.0 mi ESE 4.6 mph - N/A   Overcast
8:55 AM 37.0 °F 33.3 °F 28.9 °F 73% 30.16 in 10.0 mi East 4.6 mph - N/A   Overcast
9:19 AM 37.9 °F - 30.0 °F 73% 30.14 in 10.0 mi Calm Calm - N/A   Overcast
9:55 AM 37.9 °F 34.4 °F 30.0 °F 73% 30.15 in 10.0 mi ESE 4.6 mph - N/A   Overcast
10:55 AM 39.0 °F 35.7 °F 30.9 °F 73% 30.14 in 10.0 mi Variable 4.6 mph - N/A   Overcast
11:46 AM 39.9 °F 37.8 °F 32.0 °F 73% 30.12 in 8.0 mi ESE 3.5 mph - 0.00 in Rain Light Rain
11:53 AM 41.0 °F 39.0 °F 32.0 °F 70% 30.12 in 10.0 mi SSE 3.5 mph - 0.00 in   Overcast
11:55 AM 41.0 °F 39.0 °F 33.1 °F 73% 30.13 in 10.0 mi SE 3.5 mph - 0.00 in   Overcast
12:55 PM 39.9 °F - 34.0 °F 79% 30.11 in 7.0 mi Calm Calm - 0.00 in Rain Light Rain
1:53 PM 39.2 °F 37.0 °F 35.6 °F 87% 30.06 in 7.0 mi SSE 3.5 mph - 0.01 in Rain Light Rain
1:55 PM 39.9 °F 37.8 °F 36.0 °F 86% 30.08 in 8.0 mi SSE 3.5 mph - 0.01 in Rain Light Rain
2:48 PM 39.9 °F 35.1 °F 37.0 °F 89% 30.06 in 3.0 mi South 6.9 mph - 0.01 in Rain Light Rain
2:55 PM 39.9 °F 35.8 °F 37.0 °F 89% 30.07 in 2.5 mi South 5.8 mph - 0.01 in   Overcast
3:02 PM 39.9 °F 36.7 °F 37.0 °F 89% 30.05 in 3.0 mi South 4.6 mph - N/A   Overcast
3:16 PM 39.9 °F 36.7 °F 37.0 °F 89% 30.05 in 3.0 mi South 4.6 mph - N/A   Overcast
3:55 PM 39.9 °F 35.8 °F 37.0 °F 89% 30.05 in 4.0 mi SE 5.8 mph - N/A   Overcast
4:55 PM 41.0 °F 38.0 °F 37.0 °F 86% 30.05 in 7.0 mi SSE 4.6 mph - N/A   Overcast
5:55 PM 41.0 °F 38.0 °F 37.0 °F 86% 30.04 in 9.0 mi SE 4.6 mph - N/A   Overcast
6:55 PM 42.1 °F 40.2 °F 37.0 °F 82% 30.04 in 8.0 mi SSE 3.5 mph - N/A   Overcast
7:15 PM 41.0 °F 38.0 °F 37.0 °F 86% 30.02 in 8.0 mi SSE 4.6 mph - N/A   Overcast
7:29 PM 42.1 °F 39.2 °F 36.0 °F 79% 30.01 in 8.0 mi South 4.6 mph - N/A   Overcast
7:40 PM 42.1 °F 40.2 °F 36.0 °F 79% 30.01 in 8.0 mi South 3.5 mph - N/A   Overcast
7:48 PM 42.1 °F 39.2 °F 36.0 °F 79% 30.01 in 9.0 mi SSE 4.6 mph - N/A   Overcast
7:55 PM 42.1 °F 40.2 °F 36.0 °F 79% 30.02 in 9.0 mi SSE 3.5 mph - N/A   Overcast
8:55 PM 41.0 °F 39.0 °F 36.0 °F 82% 30.04 in 9.0 mi SW 3.5 mph - N/A   Overcast
9:55 PM 42.1 °F 39.2 °F 35.1 °F 76% 30.03 in 9.0 mi SW 4.6 mph - N/A   Overcast
10:55 PM 41.0 °F - 36.0 °F 82% 30.03 in 8.0 mi Calm Calm - N/A   Overcast
11:31 PM 39.9 °F 37.8 °F 35.1 °F 83% 30.01 in 8.0 mi SSW 3.5 mph - N/A   Scattered Clouds
11:55 PM 39.0 °F 36.8 °F 34.0 °F 82% 30.02 in 8.0 mi WSW 3.5 mph - N/A   Scattered Clouds